AFR609 TNCM-TFFR

Flight info

Callsign AFR609
Flight time 0h 31m
Altitude 15000
Route MODOR2 ZPATA A517 BIMBO BIMBO2Z
Aircraft A320/M-SDE3FGHIRWY/LB1

Departure

Time 2026-04-25 12:26
Airport Princess Juliana International Airport (TNCM)

Arrival

Time 2026-04-25 12:58
Airport Maryse Condé International Airport (TFFR)
Time Latitude Longitude Altitude Speed Heading
2026-04-25 11:44 18.04358 -63.11225 21 ft 0 kts 351°
2026-04-25 12:15 18.04336 -63.11222 22 ft 4 kts 351°
2026-04-25 12:15 18.04313 -63.11218 22 ft 3 kts 352°
2026-04-25 12:15 18.04298 -63.11223 1 ft 2 kts 53°
2026-04-25 12:16 18.04284 -63.11244 35 ft 4 kts 62°
2026-04-25 12:16 18.04272 -63.11270 22 ft 4 kts 64°
2026-04-25 12:16 18.04263 -63.11289 23 ft 4 kts 62°
2026-04-25 12:16 18.04252 -63.11312 22 ft 3 kts 60°
2026-04-25 12:17 18.04249 -63.11323 22 ft 4 kts 327°
2026-04-25 12:17 18.04227 -63.11310 22 ft 3 kts 356°
2026-04-25 12:17 18.04203 -63.11307 24 ft 4 kts 347°
2026-04-25 12:17 18.04196 -63.11305 23 ft 0 kts 351°
2026-04-25 12:20 18.04207 -63.11307 24 ft 3 kts 350°
2026-04-25 12:20 18.04221 -63.11314 22 ft 2 kts 331°
2026-04-25 12:20 18.04234 -63.11328 25 ft 5 kts 307°
2026-04-25 12:20 18.04238 -63.11368 21 ft 5 kts 264°
2026-04-25 12:21 18.04234 -63.11401 21 ft 4 kts 262°
2026-04-25 12:21 18.04230 -63.11429 21 ft 4 kts 262°
2026-04-25 12:21 18.04224 -63.11464 21 ft 6 kts 255°
2026-04-25 12:21 18.04201 -63.11503 22 ft 6 kts 232°
2026-04-25 12:22 18.04179 -63.11532 21 ft 5 kts 231°
2026-04-25 12:22 18.04162 -63.11554 21 ft 3 kts 231°
2026-04-25 12:22 18.04149 -63.11570 23 ft 2 kts 231°
2026-04-25 12:22 18.04129 -63.11596 21 ft 7 kts 231°
2026-04-25 12:23 18.04099 -63.11635 22 ft 6 kts 231°
2026-04-25 12:23 18.04075 -63.11666 22 ft 5 kts 231°
2026-04-25 12:23 18.04064 -63.11695 21 ft 4 kts 259°
2026-04-25 12:23 18.04059 -63.11721 21 ft 3 kts 261°
2026-04-25 12:24 18.04056 -63.11743 21 ft 3 kts 261°
2026-04-25 12:24 18.04049 -63.11791 23 ft 9 kts 262°
2026-04-25 12:24 18.04041 -63.11850 21 ft 8 kts 262°
2026-04-25 12:24 18.04028 -63.11898 21 ft 6 kts 245°
2026-04-25 12:25 18.04008 -63.11930 21 ft 4 kts 234°
2026-04-25 12:25 18.03993 -63.11952 24 ft 4 kts 231°
2026-04-25 12:25 18.03957 -63.11965 22 ft 7 kts 169°
2026-04-25 12:25 18.03945 -63.11921 22 ft 6 kts 78°
2026-04-25 12:26 18.03954 -63.11844 25 ft 28 kts 82°
2026-04-25 12:26 18.04026 -63.11354 20 ft 104 kts 81°
2026-04-25 12:26 18.04164 -63.10392 50 ft 156 kts 83°
2026-04-25 12:26 18.04089 -63.09281 622 ft 154 kts 123°
2026-04-25 12:27 18.03263 -63.08605 1189 ft 157 kts 162°
2026-04-25 12:27 18.02195 -63.08293 1895 ft 159 kts 166°
2026-04-25 12:27 18.01128 -63.08023 2549 ft 156 kts 166°
2026-04-25 12:27 18.00076 -63.07735 3135 ft 156 kts 165°
2026-04-25 12:28 17.98970 -63.07424 3449 ft 175 kts 165°
2026-04-25 12:28 17.97733 -63.07072 3693 ft 198 kts 165°
2026-04-25 12:28 17.96333 -63.06665 3983 ft 218 kts 165°
2026-04-25 12:28 17.94786 -63.06218 4282 ft 243 kts 165°
2026-04-25 12:29 17.93088 -63.05720 4779 ft 260 kts 163°
2026-04-25 12:29 17.91391 -63.04979 5549 ft 267 kts 157°
2026-04-25 12:29 17.89691 -63.04161 6394 ft 271 kts 157°
2026-04-25 12:29 17.87975 -63.03316 7187 ft 274 kts 156°
2026-04-25 12:30 17.86237 -63.02453 7972 ft 278 kts 156°
2026-04-25 12:30 17.84481 -63.01580 8768 ft 281 kts 156°
2026-04-25 12:30 17.82724 -63.00708 9546 ft 285 kts 157°
2026-04-25 12:30 17.80918 -62.99815 10225 ft 292 kts 157°
2026-04-25 12:31 17.79005 -62.98873 10425 ft 315 kts 157°
2026-04-25 12:31 17.76972 -62.97873 10818 ft 328 kts 156°
2026-04-25 12:31 17.74886 -62.96847 11427 ft 334 kts 157°
2026-04-25 12:31 17.72769 -62.95805 12080 ft 338 kts 157°
2026-04-25 12:32 17.70626 -62.94751 12728 ft 342 kts 157°
2026-04-25 12:32 17.68456 -62.93687 13365 ft 346 kts 158°
2026-04-25 12:32 17.66266 -62.92613 13976 ft 350 kts 158°
2026-04-25 12:32 17.64052 -62.91526 14535 ft 353 kts 158°
2026-04-25 12:33 17.61812 -62.90425 14869 ft 357 kts 158°
2026-04-25 12:33 17.59565 -62.89318 14960 ft 353 kts 158°
2026-04-25 12:33 17.57373 -62.88233 14998 ft 344 kts 158°
2026-04-25 12:33 17.55217 -62.87170 15001 ft 342 kts 158°
2026-04-25 12:34 17.53064 -62.86113 15001 ft 341 kts 158°
2026-04-25 12:34 17.50936 -62.85072 14997 ft 341 kts 158°
2026-04-25 12:34 17.48783 -62.84021 15000 ft 341 kts 158°
2026-04-25 12:34 17.48056 -62.83666 15000 ft 341 kts 158°
2026-04-25 12:35 17.44484 -62.81909 14988 ft 341 kts 157°
2026-04-25 12:35 17.42341 -62.80837 14998 ft 341 kts 157°
2026-04-25 12:35 17.40208 -62.79761 15003 ft 341 kts 157°
2026-04-25 12:35 17.38074 -62.78686 15003 ft 340 kts 157°
2026-04-25 12:36 17.35937 -62.77615 15005 ft 341 kts 157°
2026-04-25 12:36 17.33794 -62.76544 15008 ft 340 kts 157°
2026-04-25 12:36 17.31659 -62.75477 15003 ft 340 kts 157°
2026-04-25 12:36 17.29624 -62.74201 15004 ft 344 kts 145°
2026-04-25 12:37 17.27873 -62.72475 15003 ft 347 kts 134°
2026-04-25 12:37 17.26820 -62.71219 15006 ft 347 kts 134°
2026-04-25 12:37 17.24702 -62.68715 14999 ft 347 kts 134°
2026-04-25 12:37 17.23097 -62.66826 15005 ft 347 kts 134°
2026-04-25 12:38 17.21489 -62.64934 15014 ft 348 kts 134°
2026-04-25 12:38 17.19883 -62.63041 15009 ft 348 kts 134°
2026-04-25 12:38 17.18278 -62.61151 15017 ft 348 kts 134°
2026-04-25 12:38 17.16675 -62.59263 15017 ft 347 kts 134°
2026-04-25 12:39 17.15609 -62.58009 15007 ft 347 kts 134°
2026-04-25 12:39 17.14006 -62.56125 15015 ft 347 kts 135°
2026-04-25 12:39 17.12400 -62.54241 15015 ft 347 kts 135°
2026-04-25 12:39 17.10792 -62.52354 15008 ft 347 kts 134°
2026-04-25 12:40 17.09187 -62.50469 15005 ft 347 kts 134°
2026-04-25 12:40 17.07580 -62.48582 15011 ft 347 kts 134°
2026-04-25 12:40 17.05979 -62.46702 15002 ft 347 kts 134°
2026-04-25 12:40 17.04376 -62.44820 15013 ft 347 kts 134°
2026-04-25 12:41 17.02772 -62.42938 15014 ft 347 kts 134°
2026-04-25 12:41 17.01166 -62.41052 15012 ft 347 kts 134°
2026-04-25 12:41 16.99567 -62.39170 15018 ft 347 kts 134°
2026-04-25 12:41 16.97964 -62.37286 15016 ft 347 kts 134°
2026-04-25 12:42 16.96357 -62.35402 15015 ft 347 kts 134°
2026-04-25 12:42 16.95295 -62.34160 15014 ft 347 kts 134°
2026-04-25 12:42 16.93164 -62.31669 15020 ft 347 kts 134°
2026-04-25 12:42 16.91557 -62.29789 15020 ft 347 kts 134°
2026-04-25 12:43 16.89952 -62.27910 15011 ft 347 kts 134°
2026-04-25 12:43 16.88345 -62.26025 15018 ft 347 kts 134°
2026-04-25 12:43 16.85136 -62.22264 15040 ft 347 kts 134°
2026-04-25 12:44 16.83533 -62.20387 15041 ft 347 kts 134°
2026-04-25 12:44 16.81927 -62.18504 15042 ft 347 kts 134°
2026-04-25 12:44 16.78714 -62.14749 15037 ft 347 kts 134°
2026-04-25 12:45 16.77105 -62.12871 15044 ft 347 kts 134°
2026-04-25 12:45 16.75516 -62.11020 15044 ft 347 kts 134°
2026-04-25 12:45 16.72301 -62.07265 15045 ft 347 kts 134°
2026-04-25 12:46 16.70695 -62.05390 15034 ft 346 kts 134°
2026-04-25 12:46 16.69089 -62.03516 15012 ft 345 kts 134°
2026-04-25 12:46 16.67504 -62.01665 14781 ft 338 kts 134°
2026-04-25 12:46 16.65952 -61.99854 14554 ft 331 kts 134°
2026-04-25 12:47 16.64413 -61.98099 14288 ft 325 kts 139°
2026-04-25 12:47 16.62637 -61.96728 13934 ft 321 kts 154°
2026-04-25 12:47 16.60576 -61.95889 13520 ft 317 kts 169°
2026-04-25 12:47 16.58405 -61.95579 13126 ft 314 kts 176°
2026-04-25 12:48 16.56233 -61.95364 12731 ft 312 kts 176°
2026-04-25 12:48 16.54075 -61.95145 12345 ft 311 kts 176°
2026-04-25 12:48 16.51928 -61.94925 11945 ft 310 kts 175°
2026-04-25 12:48 16.49785 -61.94705 11550 ft 309 kts 175°
2026-04-25 12:49 16.47651 -61.94484 11154 ft 307 kts 175°
2026-04-25 12:49 16.45524 -61.94263 10748 ft 307 kts 175°
2026-04-25 12:49 16.43403 -61.94043 10329 ft 306 kts 175°
2026-04-25 12:49 16.41281 -61.93822 9918 ft 305 kts 175°
2026-04-25 12:50 16.39175 -61.93602 9463 ft 299 kts 175°
2026-04-25 12:50 16.37177 -61.93393 9053 ft 285 kts 174°
2026-04-25 12:50 16.35324 -61.92836 8648 ft 274 kts 150°
2026-04-25 12:50 16.33955 -61.91525 8244 ft 266 kts 124°
2026-04-25 12:51 16.33301 -61.89768 7855 ft 259 kts 102°
2026-04-25 12:51 16.32991 -61.87952 7469 ft 250 kts 103°
2026-04-25 12:51 16.32692 -61.86201 7091 ft 242 kts 102°
2026-04-25 12:51 16.32402 -61.84507 6725 ft 233 kts 103°
2026-04-25 12:52 16.32117 -61.82860 6262 ft 230 kts 103°
2026-04-25 12:52 16.31835 -61.81243 5821 ft 228 kts 102°
2026-04-25 12:52 16.31550 -61.79611 5399 ft 224 kts 102°
2026-04-25 12:52 16.31281 -61.78059 5133 ft 215 kts 102°
2026-04-25 12:53 16.31020 -61.76550 4867 ft 207 kts 102°
2026-04-25 12:53 16.30770 -61.75100 4553 ft 200 kts 102°
2026-04-25 12:53 16.30525 -61.73675 4230 ft 200 kts 102°
2026-04-25 12:53 16.30279 -61.72252 3898 ft 200 kts 102°
2026-04-25 12:54 16.30028 -61.70807 3561 ft 204 kts 101°
2026-04-25 12:54 16.29772 -61.69355 3284 ft 204 kts 102°
2026-04-25 12:54 16.29481 -61.67888 2928 ft 208 kts 102°
2026-04-25 12:54 16.29172 -61.66473 2799 ft 193 kts 103°
2026-04-25 12:55 16.28894 -61.65158 2514 ft 180 kts 102°
2026-04-25 12:55 16.28736 -61.64331 2358 ft 173 kts 102°
2026-04-25 12:55 16.28394 -61.62776 2099 ft 152 kts 106°
2026-04-25 12:55 16.28142 -61.61759 1888 ft 140 kts 103°
2026-04-25 12:56 16.27956 -61.60771 1587 ft 139 kts 101°
2026-04-25 12:56 16.27782 -61.59806 1286 ft 136 kts 101°
2026-04-25 12:56 16.27606 -61.58847 1047 ft 136 kts 103°
2026-04-25 12:56 16.27411 -61.57860 860 ft 141 kts 102°
2026-04-25 12:57 16.27218 -61.56835 594 ft 147 kts 101°
2026-04-25 12:57 16.27026 -61.55792 363 ft 146 kts 103°
2026-04-25 12:57 16.26830 -61.54770 125 ft 140 kts 104°
2026-04-25 12:57 16.26652 -61.53813 26 ft 122 kts 103°
2026-04-25 12:58 16.26514 -61.53118 28 ft 73 kts 101°
2026-04-25 12:58 16.26453 -61.52768 28 ft 31 kts 100°
2026-04-25 12:58 16.26413 -61.52552 29 ft 29 kts 102°
2026-04-25 12:58 16.26375 -61.52357 35 ft 26 kts 100°
2026-04-25 12:59 16.26384 -61.52243 38 ft 13 kts 36°
2026-04-25 12:59 16.26453 -61.52223 37 ft 10 kts 13°
2026-04-25 12:59 16.26523 -61.52208 36 ft 11 kts 11°
2026-04-25 12:59 16.26613 -61.52192 28 ft 16 kts 10°
2026-04-25 13:00 16.26719 -61.52199 24 ft 15 kts 314°
2026-04-25 13:00 16.26738 -61.52261 24 ft 13 kts 281°
2026-04-25 13:00 16.26758 -61.52370 24 ft 10 kts 281°
2026-04-25 13:00 16.26770 -61.52438 23 ft 9 kts 281°
2026-04-25 13:01 16.26781 -61.52497 26 ft 8 kts 281°
2026-04-25 13:01 16.26790 -61.52550 23 ft 7 kts 281°
2026-04-25 13:01 16.26799 -61.52595 23 ft 6 kts 281°
2026-04-25 13:01 16.26807 -61.52638 23 ft 7 kts 281°
2026-04-25 13:02 16.26817 -61.52692 23 ft 7 kts 281°
2026-04-25 13:02 16.26826 -61.52743 25 ft 7 kts 281°
2026-04-25 13:02 16.26834 -61.52789 23 ft 6 kts 280°
2026-04-25 13:02 16.26844 -61.52830 23 ft 5 kts 296°
2026-04-25 13:03 16.26873 -61.52836 23 ft 4 kts 18°
2026-04-25 13:03 16.26900 -61.52830 23 ft 4 kts 11°
2026-04-25 13:03 16.26923 -61.52825 23 ft 3 kts 11°
2026-04-25 13:03 16.26940 -61.52822 25 ft 0 kts 11°